Location: Aciu?a
(46.2833°N, 22.4500°E)
Time: 23:19:35
(UTC+00:00)

FENGYUN 1C DEB - Visible Passes

Search period start: 10 August 2022 00:00
Search period end: 20 August 2022 00:00
Orbit: 809 x 857 km, 98.8° (Epoch: 09 August)

Date Brightness Start Highest point End Pass type
(mag) Time Alt. Az. Time Alt. Az. Time Alt. Az.
10 Aug ? 19:33:10 24° SSE 19:36:26 71° ENE 19:41:50 10° N visible
10 Aug ? 21:14:48 13° WSW 21:17:21 17° W 21:20:49 10° NW visible
11 Aug ? 19:16:06 20° SE 19:19:34 52° ENE 19:24:48 10° N visible
11 Aug ? 20:57:44 17° SW 21:00:13 24° W 21:04:31 10° NW visible
12 Aug ? 18:59:02 16° SE 19:02:44 38° ENE 19:07:42 10° N visible
12 Aug ? 20:40:40 22° SW 20:43:08 33° W 20:47:58 10° NNW visible
13 Aug ? 18:41:58 12° ESE 18:45:57 29° ENE 18:50:31 10° N visible
13 Aug ? 20:23:36 27° SSW 20:26:04 45° W 20:31:16 10° NNW visible
14 Aug ? 18:25:14 10° ESE 18:29:13 22° ENE 18:33:14 10° NNE visible
14 Aug ? 20:06:33 31° S 20:09:05 63° WSW 20:14:28 10° NNW visible
15 Aug ? 18:09:16 10° E 18:12:30 16° NE 18:15:46 10° NNE visible
15 Aug ? 19:49:29 32° SSE 19:52:06 87° WSW 19:57:34 10° NNW visible
15 Aug ? 21:31:07 10° WSW 21:33:16 12° W 21:35:29 10° WNW visible
16 Aug ? 19:32:24 29° SSE 19:35:11 70° ENE 19:40:36 10° N visible
16 Aug ? 21:14:03 15° WSW 21:16:04 18° W 21:19:40 10° NW visible
17 Aug ? 19:15:20 24° SE 19:18:18 51° ENE 19:23:33 10° N visible
17 Aug ? 20:56:59 20° SW 20:58:56 25° W 21:03:20 10° NW visible
18 Aug ? 18:58:16 19° ESE 19:01:28 37° ENE 19:06:27 10° N visible
18 Aug ? 20:39:55 26° SW 20:41:50 34° W 20:46:45 10° NNW visible
19 Aug ? 18:41:12 15° ESE 18:44:40 28° ENE 18:49:15 10° N visible
19 Aug ? 20:22:50 33° SSW 20:24:46 47° W 20:30:02 10° NNW visible
